This is the latest recevied weather packets stored in our database for station/object LA9TLA-1. If no packets are shown the sender has not sent any weather packets the latest 10 day(s).
| Time | Temp. | Humidity | Pressure | Rain* | Wind** | Luminosity | Snow |
|---|---|---|---|---|---|---|---|
| 1778027264 | 4.44° C | 53% | 1024.5 hPa | 0 mm | - | - | - |
| 1778025463 | 5° C | 51% | 1024.6 hPa | 0 mm | - | - | - |
| 1778023663 | 5° C | 42% | 1024.4 hPa | 0 mm | - | - | - |
| 1778020063 | 5° C | 35% | 1024.4 hPa | 0 mm | - | - | - |
| 1778018264 | 5° C | 31% | 1024.5 hPa | 0 mm | - | - | - |
| 1778016462 | 5.56° C | 26% | 1024.4 hPa | 0 mm | - | - | - |
| 1778014666 | 5.56° C | 18% | 1024.4 hPa | 0 mm | - | - | - |
| 1778012870 | 5.56° C | 21% | 1024.5 hPa | 0 mm | - | - | - |
| 1778011064 | 5.56° C | 10% | 1024.5 hPa | 0 mm | - | - | - |
| 1778009267 | 6.11° C | 10% | 1024.4 hPa | 0 mm | - | - | - |
| 1778007466 | 6.67° C | 10% | 1023.9 hPa | 0 mm | - | - | - |
| 1778005666 | 7.22° C | 10% | 1023.7 hPa | 0 mm | - | - | - |
| 1778003865 | 7.78° C | 10% | 1024 hPa | 0 mm | - | - | - |
| 1778002067 | 8.33° C | 10% | 1023.7 hPa | 0 mm | - | - | - |
| 1777996667 | 8.33° C | 10% | 1023.7 hPa | 0 mm | - | - | - |
| 1777994866 | 8.89° C | 10% | 1023.7 hPa | 0 mm | - | - | - |
| 1777991267 | 7.78° C | 54% | 1023.7 hPa | 0 mm | - | - | - |
| 1777987664 | 7.22° C | 52% | 1024 hPa | 0 mm | - | - | - |
| 1777982265 | 7.78° C | 10% | 1023.7 hPa | 0 mm | - | - | - |
| 1777980462 | 7.78° C | 10% | 1023.6 hPa | 0 mm | - | - | - |
| 1777978666 | 8.89° C | 10% | 1023.7 hPa | 0 mm | - | - | - |
| 1777976864 | 7.78° C | 10% | 1023.5 hPa | 0 mm | - | - | - |
| 1777975066 | 6.11° C | 10% | 1023.6 hPa | 0 mm | - | - | - |
| 1777971466 | 6.67° C | 10% | 1023.4 hPa | 0 mm | - | - | - |
| 1777967864 | 7.22° C | 10% | 1023 hPa | 0 mm | - | - | - |
* Rain latest hour (hover to see other rain measurements)
** Current wind speed in m/s (hover to see current wind gust speed)